Theta_e
311 308 303 302 303 303 303 302 302 302 302 302 303 303 303 304 304 305 305 305 306 306 307 307 308 309 309 310 310 312 314 317 322 326 327 325 323 323 323 321 320 326 335 343 348 345 343 342 341 344 345 343 342 342 347 348 348 349 350 344 333 334 336 337 342 341 339 342 346 346 345 347 346 345 346 345 343 342 342 342 343 344 346 347 350 350 351 352
312 310 306 302 301 303 304 303 302 302 302 302 302 303 303 304 304 304 305 305 306 306 307 308 308 309 310 310 311 312 315 319 324 328 326 326 323 322 323 322 320 323 335 344 344 340 340 339 340 343 340 339 339 340 344 345 347 348 350 342 335 339 340 339 341 341 341 342 345 347 345 345 345 345 344 344 344 343 343 345 343 344 347 349 351 352 352 352
311 310 307 304 302 301 304 304 302 302 302 302 302 303 303 303 304 304 305 305 305 306 307 308 308 309 310 311 312 313 319 324 327 326 328 328 324 322 322 321 320 321 332 340 338 336 337 339 340 339 337 335 335 338 340 343 345 345 346 342 340 341 341 341 340 340 341 341 346 346 345 346 344 344 343 343 345 344 345 345 344 345 348 349 350 352 353 352
310 310 309 306 303 301 303 304 303 302 302 302 302 302 303 303 303 304 304 305 305 306 307 307 308 309 310 312 311 315 323 329 324 323 326 324 323 323 322 322 320 321 331 335 333 333 333 338 339 336 335 333 331 336 337 342 344 342 345 343 341 342 341 342 340 340 341 342 345 345 346 346 344 345 343 344 346 344 344 344 344 345 349 349 348 351 353 352
309 310 309 307 303 301 303 304 303 302 302 302 302 302 303 303 303 304 304 305 305 306 307 307 308 309 311 313 313 319 326 325 319 324 323 321 323 324 324 323 319 324 332 330 329 331 330 335 336 334 335 331 329 331 333 338 342 342 345 343 342 343 341 341 340 340 341 342 344 345 346 346 346 345 344 345 345 342 342 343 343 345 347 347 347 350 352 352
309 308 308 307 305 302 302 303 303 302 302 302 302 303 302 303 303 303 304 304 305 306 307 307 308 310 312 314 316 322 326 320 320 325 323 322 323 325 326 324 320 326 331 327 328 329 328 333 334 334 334 330 327 328 329 335 340 343 343 342 342 343 341 340 339 340 341 342 345 345 345 347 347 345 345 344 343 341 340 342 343 345 347 348 349 350 349 349
308 308 307 307 307 304 301 302 303 302 302 302 302 303 302 303 303 303 304 304 306 306 307 308 309 311 313 317 321 325 325 321 323 325 323 322 323 324 326 325 322 327 330 326 327 327 326 331 331 331 331 328 327 328 329 333 338 342 341 341 342 341 341 339 339 339 341 342 344 344 345 347 347 345 345 343 343 342 341 343 344 346 349 348 348 348 347 349
308 308 308 307 308 307 303 302 303 303 302 302 302 302 302 303 303 304 304 305 306 307 308 309 311 313 314 321 328 326 323 324 324 323 323 322 323 323 327 329 328 329 330 325 326 326 325 329 331 330 328 327 327 328 330 331 337 341 341 341 340 340 339 338 339 339 341 343 343 344 345 348 346 344 345 342 344 343 342 344 346 347 347 346 347 346 348 350
307 308 308 307 308 308 306 303 303 303 302 302 302 303 303 303 303 303 304 306 307 308 309 311 314 315 316 322 328 321 323 324 322 323 324 324 324 327 332 336 334 331 328 325 325 325 324 327 329 328 327 326 328 328 329 330 334 338 339 339 339 338 335 335 338 339 341 342 343 345 346 347 345 345 345 342 344 344 344 347 347 348 346 346 347 347 349 349
307 307 308 307 307 308 308 304 302 303 302 302 303 303 303 303 303 303 305 307 307 309 311 313 315 316 319 325 326 321 325 323 323 325 325 326 326 327 331 335 336 332 327 327 326 325 324 325 328 328 327 327 327 328 329 330 332 335 337 337 336 334 334 335 337 339 341 342 345 346 346 346 346 347 346 343 345 346 347 348 348 348 347 347 346 347 351 351
308 307 307 308 307 307 308 306 303 303 302 302 303 303 303 304 304 304 306 307 309 311 314 316 317 319 323 327 323 322 325 324 326 328 327 327 325 326 327 330 335 333 329 328 326 326 324 324 327 327 326 326 327 327 328 329 330 332 333 334 335 334 335 337 338 340 342 346 345 345 347 349 348 347 346 344 346 347 348 349 348 349 349 348 347 348 352 353
308 308 308 308 308 307 307 307 304 302 302 302 303 303 303 304 304 305 307 310 312 314 318 319 318 320 326 326 323 325 325 325 327 329 328 326 325 325 326 328 332 332 331 328 327 327 325 325 327 325 325 325 327 328 328 329 330 330 332 334 337 337 338 338 338 341 344 347 345 346 346 348 351 347 345 347 347 347 349 350 349 349 350 349 349 349 352 354
307 308 308 307 308 308 308 307 305 302 303 302 303 303 303 304 305 307 311 314 317 320 322 322 319 321 327 325 325 327 324 326 326 327 327 325 325 326 326 326 330 331 330 328 327 326 325 326 326 325 325 325 327 328 328 330 329 330 333 335 337 335 337 339 341 342 345 345 347 346 334 336 350 347 346 349 347 348 349 351 350 349 350 349 350 351 352 354
307 308 307 307 308 308 308 307 305 303 302 302 303 303 304 305 306 310 316 319 322 324 322 320 321 324 328 325 325 326 325 326 325 326 326 326 327 327 326 327 329 329 328 328 327 326 325 327 326 325 325 326 328 327 329 332 330 332 332 335 336 327 328 341 342 342 347 344 348 345 328 330 345 345 348 351 347 348 350 351 350 350 352 351 351 353 353 355
307 308 307 307 307 306 306 306 305 304 303 303 303 304 305 305 308 316 322 323 323 322 320 321 324 329 328 325 326 326 326 327 327 328 327 328 328 327 327 328 329 327 325 326 325 325 325 325 325 325 325 325 327 327 329 333 333 334 329 325 330 324 327 347 344 341 348 345 348 344 330 333 343 345 349 351 348 349 350 351 351 350 352 353 353 354 353 354
307 307 306 306 306 305 304 305 304 303 303 302 303 305 304 306 315 322 324 322 320 320 323 327 328 328 326 325 327 325 327 329 328 328 328 328 327 328 327 327 329 326 325 326 324 324 324 325 326 325 326 325 325 328 328 326 327 335 329 318 322 323 327 342 344 343 347 347 348 343 336 338 343 346 350 350 348 349 349 351 352 351 352 354 354 354 353 353
307 306 306 307 306 304 303 304 303 303 303 303 304 304 305 312 321 323 322 321 321 322 326 331 330 328 326 324 325 324 326 328 328 328 328 327 326 327 327 327 328 326 326 325 324 324 323 324 325 324 326 324 325 327 322 316 317 326 329 321 323 327 325 330 342 346 345 346 349 347 343 342 345 350 351 349 349 348 350 350 352 352 353 355 355 354 354 354
307 306 307 306 304 302 302 302 302 303 302 303 305 303 308 318 323 323 324 324 324 325 327 329 330 327 325 327 326 324 326 327 326 326 325 325 325 326 326 326 327 326 325 324 323 323 322 323 324 324 325 323 325 326 317 315 319 320 323 321 321 326 326 328 339 345 346 347 348 346 345 344 348 352 351 350 349 349 350 350 351 353 353 355 356 354 354 356
306 306 307 306 303 301 302 302 302 303 303 305 305 305 314 322 323 325 328 328 328 331 332 330 330 326 320 324 325 325 326 325 324 323 322 324 326 326 326 326 326 325 324 323 322 322 322 322 322 321 321 322 325 325 322 325 329 327 327 325 320 321 324 332 341 343 348 348 346 346 344 344 348 353 354 350 350 351 351 351 352 353 353 354 355 354 354 355
305 306 306 305 303 301 302 301 301 303 304 306 306 309 319 325 326 328 328 327 326 325 321 322 325 324 320 321 321 322 322 322 322 321 322 324 325 326 325 325 326 325 324 323 321 322 322 321 320 320 321 324 325 326 329 331 334 334 332 328 324 321 323 334 343 344 348 345 342 345 345 345 346 350 355 353 351 352 351 353 353 354 354 354 355 354 354 355
305 305 305 303 302 301 301 301 301 304 306 306 308 312 316 315 316 318 317 319 320 319 318 317 319 319 319 320 319 319 319 320 321 321 323 324 325 326 325 325 326 325 325 323 322 322 321 319 319 322 323 324 325 326 327 329 333 335 331 326 324 323 325 336 345 345 348 342 339 346 345 345 347 348 353 354 353 353 351 352 354 354 355 355 357 356 355 354
305 305 303 302 302 301 300 301 302 306 308 308 311 312 310 312 312 312 312 313 315 316 316 316 317 317 318 318 319 319 318 319 320 321 323 324 325 326 325 324 325 326 325 323 322 322 320 318 320 323 323 323 325 325 325 329 332 332 331 325 321 324 329 336 345 347 348 341 337 346 344 343 348 347 349 354 354 354 352 352 353 354 357 357 357 357 356 355
305 303 301 302 301 300 301 301 303 308 309 310 312 311 311 312 309 309 311 312 315 316 315 316 316 316 317 318 319 318 318 319 319 321 323 324 324 325 326 324 325 326 325 323 322 318 314 318 322 323 322 323 324 324 325 327 329 330 328 322 318 326 329 326 336 347 349 342 338 345 343 342 347 345 347 352 352 353 353 352 352 354 357 357 357 357 356 357
304 301 301 301 300 300 300 300 306 311 310 310 311 311 311 310 309 309 310 313 316 317 317 318 317 317 318 320 320 319 319 320 321 322 323 323 324 325 325 326 325 325 325 325 323 319 317 320 323 322 322 324 323 324 325 324 324 327 329 324 321 328 329 327 336 345 346 344 344 343 334 333 342 346 349 352 351 352 353 353 354 354 355 356 356 356 356 356
302 300 301 300 300 301 299 305 312 310 308 311 311 310 310 309 309 308 311 316 317 318 319 318 318 319 319 321 321 321 322 322 322 323 323 324 325 325 325 326 325 325 325 325 323 321 320 322 323 321 322 323 322 323 324 322 319 322 328 330 328 331 334 334 339 339 333 331 341 340 324 323 334 341 347 350 351 353 354 356 356 356 357 356 357 357 356 355
300 300 300 299 300 300 301 310 313 306 308 312 311 310 309 309 308 308 314 318 315 319 321 319 320 321 322 322 321 322 322 323 324 323 324 324 324 325 325 325 326 325 326 326 324 321 321 323 322 322 322 322 321 321 324 324 318 316 325 333 333 334 334 333 335 331 322 323 337 341 326 321 326 332 343 348 352 357 356 358 358 358 359 357 357 356 355 355
299 300 299 299 301 301 306 310 308 306 311 311 310 310 309 308 307 309 317 314 312 320 322 320 323 322 323 323 322 323 321 323 324 324 324 324 324 325 324 326 325 324 326 325 320 319 322 322 321 322 322 321 319 319 323 325 318 316 328 333 333 334 332 333 333 327 324 326 333 339 332 322 319 327 344 348 351 360 359 359 359 359 360 358 357 356 354 355
300 299 298 299 300 301 306 309 308 311 311 309 309 308 308 307 307 312 317 312 314 322 323 322 323 321 323 324 323 324 323 324 324 324 324 323 323 323 323 326 326 324 327 324 316 318 323 322 321 322 321 319 319 320 324 325 322 323 331 333 331 334 333 333 331 325 327 325 321 328 331 323 318 328 349 353 350 357 359 360 360 359 360 359 357 355 354 354
300 298 298 298 298 303 308 307 309 311 309 308 307 307 308 309 311 315 315 314 317 321 322 322 322 321 324 324 324 325 325 325 325 324 324 323 324 324 323 325 326 324 326 324 319 322 324 322 322 322 320 320 321 323 324 324 325 327 330 332 332 333 333 334 330 323 323 321 316 320 324 321 318 323 337 347 345 350 356 357 358 359 358 359 358 355 354 354
300 299 297 298 301 307 310 309 309 308 307 307 305 307 310 312 315 314 313 316 318 320 321 320 322 323 324 324 325 326 325 325 326 325 324 323 323 324 324 324 325 326 326 326 324 324 324 323 322 322 321 322 323 323 324 323 326 327 329 330 329 332 332 332 329 323 319 318 318 320 322 322 319 318 328 342 346 346 346 347 352 358 359 358 358 355 354 354
300 299 297 299 303 307 309 310 310 307 307 306 306 310 313 316 317 312 313 318 316 319 322 320 322 322 324 324 324 324 325 325 325 326 325 323 322 324 324 324 324 325 324 323 323 323 324 323 323 322 322 322 323 323 324 325 325 327 329 327 323 323 326 324 323 322 319 317 319 321 322 322 317 318 327 341 347 342 339 339 343 353 358 359 358 355 355 354
300 299 297 298 302 305 307 308 309 307 306 307 308 311 312 315 314 311 315 316 312 318 321 321 323 322 323 323 322 323 323 323 325 326 326 324 323 323 323 323 323 320 317 317 319 321 323 323 323 322 322 322 322 321 322 324 324 326 326 321 317 316 319 318 317 319 318 317 321 323 322 320 318 325 333 339 342 340 338 338 338 343 353 359 359 356 355 355
300 298 298 298 303 307 307 307 308 307 307 307 309 310 310 312 312 312 314 313 313 319 322 322 322 322 322 321 322 323 321 322 324 325 326 325 324 323 322 324 325 321 317 317 317 315 317 323 324 323 323 322 322 319 316 318 321 323 320 316 315 316 318 319 318 318 318 316 319 323 323 318 318 328 338 339 339 339 337 338 338 339 346 355 359 358 356 355
299 298 299 302 306 309 309 309 310 308 308 309 310 309 309 310 312 314 314 315 317 320 322 322 322 321 322 321 322 322 320 321 324 324 325 325 323 322 322 323 325 324 322 319 316 314 313 317 321 323 322 322 323 320 319 321 322 323 325 322 317 315 317 318 316 317 317 315 316 322 323 317 316 327 340 339 338 339 337 336 339 343 348 351 355 357 356 355
299 301 304 307 310 310 310 310 310 309 310 312 310 308 308 309 311 313 314 317 318 320 320 320 322 319 319 321 321 321 319 319 323 325 324 325 322 321 322 323 323 326 323 317 316 317 312 313 322 324 323 323 322 321 323 324 321 323 327 322 316 319 320 316 315 316 315 315 316 318 321 322 325 336 344 341 338 338 338 338 339 345 350 350 352 356 355 355
302 305 307 310 313 312 312 311 311 310 313 313 308 307 308 310 313 314 317 318 317 318 318 317 319 316 314 317 319 321 320 319 323 324 323 324 324 323 324 323 323 325 324 319 318 318 312 313 323 325 323 324 323 322 324 322 320 322 321 317 320 328 325 315 313 316 315 314 316 316 319 324 326 334 339 338 337 336 338 340 338 341 348 351 352 355 355 355
306 309 309 310 313 313 313 312 312 312 314 314 309 308 309 311 313 315 319 321 317 318 317 313 315 314 311 312 315 320 320 319 321 321 320 322 323 323 325 324 324 325 326 323 321 321 316 313 322 325 321 323 324 323 324 323 324 322 316 319 325 329 327 320 314 316 317 316 315 314 316 318 317 322 333 336 335 334 335 336 335 338 346 350 351 353 354 354
308 310 311 313 314 313 313 312 313 314 315 315 313 312 311 310 312 313 317 319 318 318 317 313 315 316 314 311 314 320 320 316 318 320 318 320 321 323 326 325 325 325 326 325 322 324 321 312 318 325 322 322 324 323 320 322 325 324 322 327 325 318 318 319 315 315 316 316 316 314 315 316 314 318 328 335 335 336 335 336 335 336 343 349 349 351 354 354
308 308 311 315 314 312 312 312 315 316 316 315 314 314 313 311 312 312 313 315 315 316 317 315 316 318 317 315 316 321 321 316 318 319 317 319 320 323 325 325 326 326 325 326 324 325 325 315 313 322 324 322 322 319 315 317 323 324 325 328 326 320 318 317 317 317 315 315 315 315 314 315 319 325 330 335 338 337 335 336 336 335 340 348 350 350 353 354
307 306 309 314 313 311 311 313 314 315 316 316 313 313 313 312 312 312 311 312 312 314 314 315 316 316 317 319 318 320 321 319 320 319 317 321 321 322 325 325 325 327 325 326 326 325 327 320 313 319 324 319 317 318 316 317 320 319 318 319 320 321 321 320 319 317 316 315 315 316 314 313 324 335 335 335 337 336 335 336 335 335 335 342 349 350 352 354
307 307 310 313 313 311 310 311 312 313 315 316 314 313 313 313 312 311 312 311 311 312 312 313 314 314 316 317 317 319 320 320 320 319 318 321 320 320 324 324 325 327 325 326 327 325 326 322 314 314 315 313 315 322 322 321 322 321 317 317 318 320 318 316 316 317 316 315 314 315 313 314 327 337 336 336 336 334 334 335 334 336 334 337 348 351 351 354
306 307 308 310 310 310 309 309 310 311 312 314 314 314 314 314 312 311 311 311 311 311 312 312 313 314 315 315 316 318 318 318 318 318 318 319 320 322 323 323 324 325 326 326 327 327 328 325 317 313 315 317 320 323 322 321 323 323 322 323 323 322 317 312 313 315 315 314 315 314 312 318 331 338 334 335 336 332 333 335 334 334 332 339 351 351 352 356
306 306 306 307 308 309 310 311 310 309 310 312 313 312 313 313 312 312 312 312 311 311 311 312 311 313 313 314 316 317 316 316 317 317 317 319 321 321 322 323 322 324 325 325 325 327 328 325 318 315 319 322 323 324 324 323 322 320 321 324 323 322 321 318 319 319 315 313 315 315 312 318 332 344 340 336 337 333 333 335 335 336 338 346 356 355 354 358
304 305 306 308 309 310 311 312 312 311 311 312 312 312 313 313 312 312 312 313 313 312 311 312 312 312 313 314 315 316 315 314 315 316 317 317 318 320 322 322 323 323 324 326 328 326 324 323 320 315 316 318 319 320 320 320 321 319 319 323 324 324 325 323 322 322 317 314 315 315 312 317 333 351 347 342 340 335 332 334 335 341 344 347 356 360 357 358
304 306 308 309 311 311 311 312 312 313 314 314 314 314 314 314 313 313 313 314 314 313 312 313 312 312 313 313 313 315 315 313 314 316 317 317 317 319 321 321 323 323 325 330 333 327 323 325 323 316 314 316 316 315 315 316 319 320 320 321 322 323 323 320 318 315 314 316 317 315 313 319 333 345 341 337 337 334 335 336 334 340 346 350 358 362 360 361
304 307 308 309 311 312 312 312 312 312 313 314 315 316 314 314 314 313 314 314 313 314 315 315 314 314 314 313 313 314 315 314 314 317 320 320 319 320 323 323 324 325 329 331 332 328 327 328 327 321 317 316 316 319 323 323 319 316 318 319 320 322 322 321 315 312 314 317 316 319 321 320 326 336 336 334 333 333 335 335 332 336 345 353 362 364 361 361
305 307 308 311 312 312 312 312 312 312 313 313 315 316 315 314 315 315 315 314 313 313 314 316 317 317 316 316 315 315 315 316 316 317 319 320 320 322 324 324 324 325 328 329 329 332 330 326 327 328 323 322 324 325 327 326 320 317 317 318 319 322 322 318 313 314 320 316 312 323 330 320 323 334 335 334 334 334 334 333 333 335 335 345 361 364 359 358
305 306 307 310 310 311 311 312 312 312 311 312 313 314 315 315 315 315 316 316 315 314 314 316 316 317 318 317 317 316 317 317 318 318 318 318 319 321 320 321 323 324 327 326 327 335 332 325 327 328 324 326 328 327 326 326 323 323 321 319 320 321 321 317 315 319 323 315 313 326 332 324 327 334 333 334 335 333 333 332 333 334 331 340 360 365 359 356
304 305 305 307 307 308 309 309 309 308 308 309 312 313 314 315 315 315 315 317 317 316 314 316 316 316 317 317 318 320 320 318 318 320 321 320 320 320 318 318 320 321 323 323 327 335 333 329 332 329 324 326 328 327 328 326 323 322 322 322 322 322 321 320 320 322 323 319 320 329 331 329 331 332 332 333 334 333 333 332 332 333 333 343 358 362 358 356
304 304 305 305 304 305 306 305 306 307 307 309 311 312 312 312 313 314 315 316 318 319 317 316 316 316 317 317 317 319 321 321 322 323 324 323 322 321 320 319 320 322 322 323 328 334 331 329 335 332 325 324 328 329 328 326 324 321 321 324 324 322 321 321 321 323 322 320 323 326 326 328 332 332 332 333 334 333 332 333 333 333 336 345 355 357 356 357
304 304 303 302 303 304 305 306 307 308 309 309 310 310 310 310 311 312 313 314 315 318 318 317 317 318 320 321 320 320 321 323 325 325 325 326 325 325 325 324 323 324 325 325 329 334 332 329 333 332 323 321 326 328 326 327 324 319 318 322 322 320 320 320 321 324 322 321 322 320 318 324 332 332 331 332 332 333 333 334 334 336 341 348 353 357 358 359
304 304 303 302 303 305 305 306 307 308 308 308 308 310 310 311 312 311 312 313 313 315 316 316 316 318 320 322 322 322 321 322 322 322 323 324 325 325 326 327 326 326 327 329 330 333 334 331 329 328 322 321 325 326 324 323 320 316 317 322 323 323 322 322 324 326 326 324 322 318 319 328 332 329 330 332 330 330 331 334 337 343 352 357 357 357 359 358
Wind_Speed
21 20 19 18 18 19 19 19 19 19 19 19 19 20 20 20 20 20 21 21 21 21 22 22 23 23 23 22 23 22 22 22 16 10 11 11 7 5 9 11 11 12 17 15 16 15 13 12 10 11 9 7 5 4 6 5 5 4 4 3 0 1 2 3 5 3 2 7 10 13 12 10 11 10 6 6 9 12 12 9 10 7 3 8 15 22 25 24
22 21 20 19 19 19 19 19 19 20 20 20 20 21 21 21 21 21 22 22 22 22 22 22 22 23 22 21 20 20 22 19 15 15 12 6 4 10 9 8 15 17 20 17 18 16 13 11 11 11 8 5 5 4 6 6 6 6 4 3 1 1 2 2 5 5 2 6 11 13 12 9 11 12 9 10 11 13 12 10 11 9 9 13 19 24 25 24
22 22 21 20 20 21 20 19 20 21 21 21 21 22 22 22 22 21 22 23 24 24 23 22 21 22 21 19 17 17 18 15 14 8 4 3 6 14 10 6 18 21 21 17 16 15 11 10 11 10 7 5 5 6 6 5 6 6 5 3 2 1 1 2 4 6 4 5 11 13 12 10 11 12 10 11 12 13 12 11 13 12 14 17 20 24 25 24
23 22 22 21 21 22 22 20 21 21 21 21 22 23 23 23 23 22 22 23 24 24 23 22 21 20 19 17 14 13 13 13 7 4 5 5 11 12 8 3 17 23 20 14 13 13 11 11 12 10 8 7 6 6 7 6 5 5 5 5 2 1 1 3 4 7 6 7 11 12 12 11 11 11 10 11 11 11 11 13 16 15 18 20 21 23 25 24
23 23 23 22 22 23 23 22 22 22 22 22 23 24 24 24 24 23 23 24 24 23 23 22 21 18 16 14 10 9 10 8 2 7 4 13 12 10 5 4 14 21 18 13 12 13 13 12 12 10 8 7 8 7 8 9 7 5 5 7 3 1 3 2 4 7 8 8 11 13 13 11 12 11 11 12 10 7 9 14 15 15 19 21 22 23 23 23
24 23 23 23 22 23 23 23 23 23 23 24 24 25 25 25 25 24 24 24 24 23 23 22 20 16 13 10 5 5 7 6 5 5 12 13 8 8 1 6 11 18 16 13 13 13 14 13 12 10 8 9 10 10 9 10 9 6 6 8 6 4 4 2 4 8 9 10 12 13 12 12 12 11 11 13 7 2 6 14 14 15 19 23 24 22 22 21
25 24 24 24 23 23 24 24 24 23 24 25 26 27 26 27 26 25 25 25 24 22 22 21 18 13 9 5 2 4 8 11 12 10 11 8 4 7 2 9 12 17 16 15 15 14 14 15 15 11 10 10 11 12 10 8 11 8 7 8 6 5 7 5 5 8 11 12 12 12 12 14 14 10 10 13 6 3 5 13 15 16 20 23 22 21 21 21
25 25 24 24 24 24 25 25 24 24 25 25 27 28 28 28 27 27 27 25 23 22 21 20 15 10 4 1 4 7 9 11 9 6 8 6 2 7 4 10 14 16 17 18 17 15 14 16 16 12 11 11 10 12 10 8 10 11 9 8 7 7 8 7 6 9 12 11 10 13 13 15 13 9 10 12 7 4 8 14 15 17 20 21 21 21 21 20
25 25 25 24 25 25 26 26 25 25 25 26 28 28 29 29 30 30 28 25 23 21 20 17 12 6 2 2 7 10 7 6 6 6 7 6 3 3 4 8 15 16 17 19 18 17 14 14 17 14 11 11 11 10 10 9 7 9 12 10 8 7 7 7 8 11 12 9 11 15 14 14 12 8 9 12 9 7 12 15 16 17 19 19 20 20 20 19
25 26 26 25 26 26 26 27 26 25 26 27 28 28 29 30 32 30 28 26 22 20 17 14 9 4 4 4 8 9 5 5 5 5 7 7 5 2 2 6 13 17 17 17 18 19 16 14 16 14 9 9 10 9 10 10 4 4 9 9 7 6 5 7 9 11 11 10 13 14 13 13 12 7 7 11 11 11 14 16 17 17 18 18 18 19 19 19
25 26 27 26 26 27 27 27 27 26 27 28 28 29 29 30 32 30 28 25 21 18 14 12 6 6 5 6 8 8 4 4 4 4 8 9 7 6 6 5 11 16 16 16 18 21 19 16 13 10 6 6 8 10 11 10 5 4 6 6 6 6 5 8 10 12 11 10 14 13 11 11 11 9 8 12 14 12 14 16 17 16 16 17 18 18 16 17
26 26 26 27 27 27 28 28 28 28 28 28 29 29 30 31 30 28 26 22 17 13 10 9 6 8 5 7 11 13 8 8 7 6 9 10 10 10 9 7 11 14 15 15 17 20 21 17 13 11 7 4 7 8 8 9 8 7 8 7 6 6 6 9 10 13 11 10 13 11 9 10 12 12 9 14 15 13 14 15 16 16 15 16 17 16 14 16
27 26 27 28 27 27 27 28 29 29 29 29 30 30 31 30 27 25 22 17 12 8 8 6 7 7 5 7 9 12 12 11 9 9 12 13 13 13 10 9 11 13 14 14 14 17 19 15 13 15 9 6 7 3 1 8 9 8 10 9 5 5 7 10 10 13 12 10 14 12 6 8 13 14 11 14 16 15 15 14 15 15 14 15 16 15 14 16
27 27 28 29 28 28 28 29 30 31 31 30 31 31 30 26 23 21 15 11 8 6 4 5 7 5 6 9 8 9 12 11 10 12 12 12 12 11 9 9 10 10 10 12 11 13 15 11 10 12 9 9 6 1 3 7 8 9 9 8 7 6 6 11 11 14 13 10 15 13 6 4 9 14 14 15 16 16 15 15 15 14 13 14 15 15 15 16
28 28 29 30 29 28 29 30 31 32 32 32 32 30 26 23 19 14 9 7 4 2 3 5 5 5 6 10 9 7 7 5 8 10 6 5 8 8 10 11 10 9 8 9 9 10 12 11 9 9 9 10 7 5 9 8 6 9 8 7 9 6 5 11 11 14 12 10 15 14 6 3 6 13 16 14 16 16 14 15 15 15 15 15 14 15 14 15
28 29 29 31 29 29 31 31 32 33 32 32 32 27 22 18 12 8 5 2 2 6 5 2 5 6 7 6 2 3 4 4 6 8 4 3 4 6 11 11 10 10 8 8 7 8 12 11 9 9 8 10 9 9 9 8 8 8 8 8 9 8 7 9 10 14 12 10 15 14 7 2 4 11 15 14 16 16 14 14 16 16 16 15 13 14 14 14
28 30 30 30 30 30 32 32 33 34 33 32 29 24 18 12 4 2 2 2 3 5 3 4 3 6 7 3 3 6 7 6 6 7 4 3 3 4 11 11 9 11 9 8 7 8 11 10 8 8 8 9 10 10 9 10 9 8 9 9 7 8 8 8 9 12 13 12 14 15 10 3 5 9 12 14 15 16 14 14 16 15 15 15 13 13 14 14
28 29 30 30 31 32 32 34 34 33 34 30 24 22 15 5 2 0 1 3 2 3 5 4 3 5 5 4 4 3 7 8 7 3 5 5 5 7 12 9 9 12 9 8 9 9 10 9 9 8 9 10 11 12 11 11 11 10 10 9 7 8 8 9 9 11 15 14 13 14 12 7 6 9 11 13 14 14 14 13 14 15 15 15 14 14 14 15
29 29 30 31 34 34 34 35 33 35 36 26 20 20 9 3 3 5 6 6 4 4 4 3 8 6 6 3 4 3 5 6 5 7 10 7 6 10 11 8 10 12 9 8 10 12 9 8 10 10 11 13 14 15 14 14 13 13 11 10 10 8 9 10 9 11 16 14 12 12 12 12 9 9 11 12 13 13 13 12 12 13 14 14 14 14 14 15
29 31 32 33 35 36 36 34 33 35 30 19 19 16 5 3 4 4 5 8 9 11 12 7 11 12 14 9 6 7 8 8 10 11 10 9 9 12 11 9 11 11 9 9 10 12 10 10 11 12 14 16 17 18 17 17 14 13 12 11 12 10 9 11 9 12 16 12 11 13 12 12 11 9 10 11 12 13 13 13 12 12 13 14 14 15 16 16
31 33 34 35 37 38 36 34 34 29 18 14 16 11 3 4 5 3 3 9 13 15 18 16 14 17 19 14 9 7 7 8 11 10 9 11 12 12 11 12 12 10 11 11 10 10 11 12 14 15 16 16 18 19 19 19 16 12 12 10 11 10 8 10 9 12 15 11 9 12 12 12 12 9 9 11 13 13 14 14 14 15 14 13 15 16 16 14
32 33 35 37 39 39 35 35 32 19 10 11 11 7 3 5 4 5 5 10 13 13 17 18 17 18 19 18 14 9 7 9 11 12 11 13 14 12 11 13 13 10 13 12 9 9 10 13 15 17 16 16 16 18 19 20 17 13 12 10 10 9 7 9 9 10 12 9 7 11 11 11 11 11 10 13 13 12 14 15 15 15 15 14 15 15 16 15
31 35 37 38 41 38 34 36 26 8 7 11 9 5 2 3 5 6 5 8 12 11 14 16 16 17 16 15 12 11 12 13 12 12 15 15 14 13 12 14 14 13 14 14 11 10 10 12 16 17 15 16 16 17 20 18 15 13 12 10 10 10 9 8 9 11 11 8 7 9 9 9 10 11 12 13 14 12 13 15 15 15 16 16 16 15 15 16
33 38 38 39 42 38 36 33 14 1 9 12 8 3 1 2 7 8 6 7 10 9 11 13 12 13 11 5 8 14 12 10 8 9 16 18 14 13 13 13 15 14 13 16 17 13 11 9 14 17 15 16 15 15 17 15 12 15 15 13 11 11 12 11 9 10 11 9 8 8 6 8 9 11 12 12 14 13 13 15 15 15 15 15 16 16 16 17
36 39 39 40 41 40 37 22 4 7 18 11 3 3 2 3 8 10 6 5 8 5 6 9 7 8 7 4 9 11 7 8 9 8 15 20 17 12 11 11 11 13 15 18 17 14 12 7 10 17 16 16 17 14 16 14 11 14 16 17 16 12 13 15 13 11 9 9 9 9 7 7 10 14 13 10 12 14 14 14 16 15 15 15 16 16 17 17
38 38 38 40 39 42 32 9 5 19 19 4 4 4 1 6 10 9 5 4 7 4 5 6 6 7 9 8 9 8 5 6 7 9 14 19 19 12 10 9 8 12 15 15 11 9 11 10 10 15 16 18 18 14 16 17 12 11 14 18 19 15 13 15 15 12 9 8 10 11 8 7 9 12 12 11 13 15 15 15 17 16 16 16 16 16 17 17
39 36 39 39 38 38 21 7 15 21 10 2 3 1 4 9 11 6 4 4 6 2 4 3 3 5 7 8 11 8 3 4 6 10 14 17 19 13 12 11 8 11 11 9 9 7 12 15 12 15 16 17 16 13 16 17 13 12 13 17 20 18 14 13 14 12 10 9 9 10 9 8 9 8 9 12 15 15 15 17 17 17 18 18 18 17 18 18
38 37 38 38 39 31 13 13 18 12 4 3 2 6 10 11 8 3 5 5 2 2 2 3 3 3 4 7 13 8 2 1 4 8 13 16 18 13 13 14 12 12 12 10 9 9 14 17 15 15 15 13 14 14 16 17 15 12 10 13 17 17 16 13 13 12 12 11 9 11 12 9 9 7 6 11 14 14 15 18 18 18 19 20 19 19 19 19
39 38 36 39 40 25 8 11 13 8 7 7 8 10 11 9 6 4 5 4 2 2 2 4 4 6 6 6 12 10 5 4 3 4 11 14 16 12 11 14 14 13 14 14 12 8 11 16 17 16 13 12 13 16 17 17 16 10 6 8 13 15 15 14 12 10 11 13 12 14 14 9 9 8 8 9 11 12 13 15 17 19 20 20 20 20 20 18
40 38 36 39 34 17 7 12 17 14 11 8 9 10 9 7 4 5 7 4 1 3 4 3 4 8 9 7 9 10 8 7 3 7 10 12 15 12 8 10 13 12 13 15 15 10 7 11 14 14 13 12 12 15 16 16 16 10 6 8 10 11 11 10 9 8 11 12 12 16 16 11 9 9 9 10 10 12 12 11 13 16 19 20 19 19 20 18
42 39 36 36 28 14 9 9 10 8 5 4 9 9 8 5 5 8 7 2 2 4 7 6 7 8 9 7 5 7 8 7 7 10 9 10 13 12 8 8 10 10 10 12 14 14 10 10 11 12 14 14 12 13 13 15 16 12 8 10 8 7 7 7 7 8 10 11 12 17 18 14 11 10 8 9 12 14 13 10 10 14 19 19 18 18 19 18
42 40 35 34 27 15 13 9 4 4 4 6 10 8 6 5 8 10 6 2 2 6 6 6 9 9 8 6 5 7 6 6 9 11 11 11 12 13 13 11 10 10 11 10 11 14 13 11 11 12 15 17 14 12 11 13 15 14 11 11 10 8 7 8 9 9 9 11 12 16 18 14 11 11 11 8 11 14 13 11 11 12 15 17 18 18 17 17
43 40 34 29 22 14 17 15 11 11 9 8 7 5 6 8 10 9 9 5 2 3 3 5 8 9 8 7 8 7 5 5 9 12 13 13 12 14 17 16 15 13 9 10 11 11 11 12 15 14 12 17 18 13 11 12 14 15 13 11 11 10 10 11 10 9 9 11 13 14 13 12 10 11 14 14 14 15 14 13 13 11 11 13 16 17 16 17
43 36 31 26 18 13 13 13 14 13 10 7 6 6 10 13 9 7 12 11 4 3 5 6 6 8 9 9 7 5 6 7 9 11 12 13 12 12 15 18 20 15 9 10 10 10 11 11 16 17 11 15 20 17 13 12 13 15 14 13 12 11 11 11 10 10 11 11 13 14 10 10 9 6 8 12 13 14 13 13 12 10 9 10 12 16 17 18
40 31 26 20 13 8 6 7 9 9 9 7 6 9 13 12 8 7 9 10 8 6 6 5 5 8 9 10 8 6 7 6 8 11 11 12 11 11 13 15 19 17 11 10 8 10 13 10 13 19 14 15 19 19 17 14 12 13 14 14 13 12 11 11 11 12 12 11 12 12 8 8 9 4 4 6 8 10 11 11 11 10 10 10 11 14 16 16
34 26 21 13 7 5 5 6 7 10 9 7 8 12 13 10 8 7 5 7 10 9 8 8 8 10 9 9 10 9 8 6 7 8 9 12 13 13 14 13 17 19 14 10 6 7 11 9 10 18 19 18 18 18 19 16 10 10 13 15 14 14 13 12 12 10 10 13 11 9 8 9 9 9 10 13 13 12 12 12 13 12 11 12 12 13 15 16
27 21 17 11 6 4 5 5 9 11 8 7 11 13 11 10 11 8 4 4 5 7 9 9 8 10 10 9 10 12 11 8 9 8 8 12 11 13 16 13 17 21 18 12 7 6 9 8 10 17 19 19 17 17 20 20 14 9 11 15 14 13 12 11 11 10 10 13 11 11 13 12 10 9 11 14 16 16 15 15 15 12 12 13 13 13 16 17
23 20 16 10 4 3 3 7 11 9 6 8 14 15 11 11 12 11 8 4 4 6 10 9 6 8 9 8 9 11 12 9 10 9 9 9 8 12 16 14 16 21 21 17 10 7 8 8 9 17 18 17 16 16 17 19 21 16 11 12 13 12 11 10 11 12 13 13 10 13 16 13 12 10 8 11 12 12 13 13 11 11 12 13 13 14 16 16
19 14 7 3 5 3 4 8 9 7 7 10 13 12 10 12 13 13 12 10 9 8 9 10 8 7 9 9 7 8 11 9 8 8 8 7 6 9 12 12 15 19 22 20 12 7 8 7 7 14 17 16 14 14 13 14 19 19 14 12 12 11 10 11 11 10 12 13 11 14 15 11 10 11 12 13 11 9 10 11 9 9 11 12 12 13 14 15
12 8 2 6 7 5 5 5 7 6 8 11 11 10 10 12 13 14 16 15 12 9 9 11 10 9 10 11 9 7 9 8 7 6 6 7 6 6 10 12 14 17 21 22 16 10 8 7 7 10 15 15 12 13 16 15 15 16 15 13 13 11 9 12 13 11 12 12 10 12 13 10 8 10 14 16 14 12 12 12 12 11 12 12 11 11 12 13
9 6 1 7 5 2 1 6 8 6 8 11 12 13 12 10 11 13 16 17 14 12 12 13 13 11 10 11 11 9 8 8 9 8 6 7 7 5 6 7 10 14 17 19 17 12 8 8 8 8 10 12 13 15 20 21 17 15 13 13 14 12 10 13 14 13 13 12 11 12 12 10 8 7 10 14 15 14 14 14 13 13 14 11 9 11 12 13
7 5 2 2 3 5 6 7 7 7 9 10 11 13 11 9 10 12 13 15 15 13 12 13 14 13 12 11 11 10 9 9 10 10 8 8 10 6 3 1 7 11 12 13 15 13 9 7 8 9 8 11 14 17 19 23 23 19 15 15 16 13 12 13 12 12 14 14 14 15 13 10 8 7 8 11 14 16 15 13 11 13 13 8 7 9 10 12
5 7 12 13 8 7 6 7 8 8 9 11 13 14 12 10 11 12 13 14 14 12 12 13 14 15 14 12 12 12 11 9 10 12 10 8 10 9 3 2 4 8 10 10 13 14 9 6 8 9 8 9 13 15 16 19 20 19 16 16 17 16 17 15 12 11 14 15 15 15 14 12 7 4 6 9 12 14 13 11 11 12 11 7 6 7 8 10
6 8 11 9 6 8 7 7 8 9 9 11 14 14 13 12 12 13 13 13 12 11 12 12 13 14 14 13 13 13 12 10 10 12 11 10 9 8 7 6 6 8 7 3 4 9 10 8 9 9 8 9 11 12 13 14 14 14 14 17 19 22 23 19 14 12 14 17 19 17 14 12 8 5 5 8 10 10 10 11 12 12 10 7 5 6 7 8
7 7 7 7 9 9 7 7 8 9 9 11 12 13 12 11 12 14 14 14 13 12 12 11 13 13 13 14 14 14 14 12 9 9 10 10 9 8 8 8 9 9 3 7 8 3 9 9 9 10 10 11 11 11 11 11 11 11 15 20 23 25 26 19 13 14 14 14 19 18 12 12 13 11 10 12 12 10 10 11 11 10 10 9 5 5 6 7
6 5 5 5 6 7 7 8 9 9 9 10 10 11 12 11 11 13 15 15 15 14 12 10 12 12 13 15 14 14 15 14 11 8 7 8 8 7 7 7 7 6 2 8 8 4 6 8 11 13 13 12 11 11 11 11 12 14 18 23 24 24 26 20 14 14 14 10 13 15 13 15 18 17 16 17 17 14 13 13 11 9 9 8 6 6 6 6
5 5 6 4 3 5 7 7 6 6 8 9 7 8 11 11 10 9 11 12 14 15 13 11 12 12 13 15 14 13 14 14 14 13 11 10 8 5 6 6 7 5 1 6 8 6 6 8 12 16 18 17 16 15 15 15 15 17 19 23 23 22 24 24 19 18 16 12 13 12 13 18 20 19 18 16 14 14 15 15 13 11 13 11 6 7 8 8
5 5 6 7 6 6 6 5 7 8 10 11 9 9 12 12 11 9 8 9 12 14 12 11 15 16 15 14 12 12 13 13 14 15 13 12 10 9 9 9 10 9 7 8 8 6 8 9 12 16 18 20 20 19 19 18 16 17 18 20 22 23 24 24 22 22 20 16 14 11 14 19 21 21 21 17 14 14 15 15 16 15 17 14 7 8 9 10
6 6 5 6 7 8 9 11 11 12 13 11 9 10 12 12 13 12 8 7 11 13 12 12 15 16 17 16 12 10 12 11 12 13 12 12 11 11 10 10 11 12 11 10 8 7 8 8 11 15 16 19 21 21 22 22 20 20 21 21 22 24 26 25 23 25 25 22 20 16 17 20 19 20 23 20 17 16 14 14 16 16 17 15 10 9 10 11
6 6 5 5 6 8 9 10 9 9 10 9 8 9 11 12 13 11 9 8 9 10 11 14 14 12 14 17 17 14 13 11 10 9 9 10 11 9 9 9 9 11 13 11 8 8 7 7 8 10 12 16 20 22 24 24 23 23 23 23 24 23 25 25 23 23 23 22 23 23 20 18 15 16 20 19 18 17 16 16 15 14 16 17 13 11 11 11
8 8 7 6 7 8 7 7 7 7 7 7 8 8 9 10 9 9 9 10 12 12 10 9 9 7 7 10 13 13 11 9 10 9 7 7 7 6 6 6 7 8 11 11 9 8 8 7 7 7 8 11 16 21 24 25 25 25 24 24 25 23 22 21 20 20 20 20 22 23 20 15 13 15 17 18 19 19 19 18 16 15 17 16 13 11 11 11
8 8 8 6 7 8 7 7 7 7 6 6 7 8 8 8 8 9 8 8 9 10 9 11 11 9 6 6 5 4 5 6 8 9 8 8 9 8 8 8 9 9 8 9 9 8 8 8 7 7 7 8 11 16 20 21 21 20 20 21 23 23 22 21 20 21 21 19 17 17 15 13 14 16 17 19 21 22 20 17 15 14 13 11 10 10 9 8
Wind_Direction
354 353 351 351 351 350 351 352 353 352 352 350 349 347 345 343 340 338 335 332 331 330 328 329 329 328 328 326 325 323 322 323 312 280 254 278 313 317 282 254 238 199 176 170 170 171 173 182 177 176 183 182 212 215 184 209 220 214 243 248 219 164 171 153 149 135 108 137 157 161 169 164 150 163 150 156 167 151 159 164 156 150 132 135 130 139 146 147
351 351 351 351 350 349 349 350 351 350 350 348 347 345 343 341 339 337 333 330 329 327 327 327 327 327 325 325 325 323 324 319 289 269 256 253 2 358 334 232 217 196 176 175 178 179 178 179 171 179 192 192 197 183 180 189 202 226 251 242 222 162 105 141 160 147 149 155 162 166 172 169 155 160 164 174 164 157 166 160 163 157 135 132 135 144 148 152
350 349 349 349 350 349 348 348 350 349 348 346 345 343 342 340 338 336 332 330 327 325 324 324 326 325 323 325 324 326 329 308 280 274 200 175 345 341 347 205 204 194 184 186 186 189 192 181 172 186 205 218 203 184 199 185 192 230 250 245 200 187 123 168 190 170 167 161 165 169 171 170 157 157 171 179 163 171 180 165 173 169 149 146 145 149 152 157
349 348 347 347 348 348 346 347 349 348 346 344 343 341 340 339 337 334 332 329 325 323 322 322 325 322 322 324 324 334 323 290 282 102 111 332 333 334 351 176 197 194 191 195 199 204 207 191 183 202 217 230 217 202 218 188 190 223 224 246 177 149 256 181 202 192 173 168 172 169 170 170 158 160 175 177 169 184 192 178 179 171 158 155 151 154 157 161
347 346 346 345 346 346 345 345 346 346 345 343 341 340 339 338 336 333 331 327 323 321 319 320 322 321 321 320 326 340 311 289 30 99 355 328 332 328 339 155 187 191 196 206 208 209 212 200 192 210 224 234 222 211 225 202 209 238 221 248 242 249 283 160 202 204 175 175 175 171 175 165 158 170 179 180 180 188 188 181 180 169 160 158 156 159 162 165
346 345 344 343 344 344 343 343 343 344 343 342 340 338 337 336 334 331 329 326 322 318 317 317 320 319 315 318 336 331 294 294 329 316 315 321 335 334 311 158 178 185 198 212 206 204 206 197 193 207 215 229 226 219 227 204 207 238 224 235 243 249 267 227 213 203 182 184 180 176 174 158 166 178 181 188 179 117 173 172 171 165 160 160 159 162 166 170
344 343 342 341 341 341 343 341 342 344 343 341 339 337 336 334 332 329 327 324 320 316 314 313 315 312 308 326 323 267 262 277 296 300 301 298 7 12 119 166 179 184 197 207 203 200 196 194 198 206 211 221 229 226 230 206 199 227 231 224 227 232 245 242 219 200 191 193 184 177 170 165 177 174 178 191 157 78 167 160 161 160 160 161 161 166 171 172
343 342 340 340 338 339 340 340 341 343 342 339 338 337 334 333 330 328 325 321 318 314 311 309 309 302 287 308 279 273 266 275 292 301 282 261 347 20 94 163 182 189 197 205 204 200 195 199 201 204 214 220 228 225 224 215 204 217 234 234 229 230 243 242 219 198 194 197 182 175 173 173 181 167 174 184 147 136 160 150 157 158 160 166 166 170 172 174
342 341 339 338 338 337 337 338 340 342 342 338 336 335 332 332 329 326 322 319 316 312 307 303 298 280 224 205 271 282 286 288 299 289 260 243 277 28 108 169 185 191 201 207 207 205 201 204 204 204 220 227 229 228 217 219 216 209 222 234 238 243 252 240 217 197 193 192 178 177 177 177 178 164 175 177 147 142 152 151 158 159 165 171 171 173 173 177
341 340 339 338 336 335 334 336 339 341 341 337 335 333 331 331 328 324 320 316 314 310 303 293 283 216 190 232 262 276 295 299 293 271 243 236 241 205 200 197 187 196 207 210 210 211 211 210 208 209 235 243 230 234 222 222 242 218 222 235 251 266 262 234 211 193 190 183 179 181 179 174 171 174 185 169 152 148 153 158 160 162 169 173 175 174 173 178
340 340 339 337 335 335 334 334 337 340 339 336 333 331 330 329 326 322 318 315 313 307 295 282 253 180 204 237 254 271 295 293 273 242 243 239 234 247 268 230 197 204 210 212 214 215 216 216 212 209 230 244 227 232 229 227 249 241 232 239 240 254 239 217 202 184 181 178 184 185 173 166 171 198 199 160 159 160 157 161 165 168 171 174 178 175 175 181
340 339 338 337 335 334 334 333 336 339 337 334 332 331 330 327 323 320 317 314 310 300 284 270 206 170 219 239 244 258 270 281 269 239 239 239 244 261 270 247 218 214 214 216 216 214 217 216 214 214 207 224 227 228 227 221 235 235 234 241 221 225 219 202 191 179 178 180 181 174 165 177 190 206 190 154 162 167 162 165 167 172 171 173 179 176 178 184
339 339 338 336 334 334 333 332 335 338 337 334 332 330 328 325 322 320 317 311 308 294 272 246 166 167 234 250 251 258 264 268 261 246 243 246 254 257 255 243 224 220 221 222 218 210 213 211 213 223 220 233 229 213 233 212 225 232 229 242 226 224 217 190 180 179 184 179 171 173 186 199 198 200 175 154 166 169 167 171 171 175 174 174 179 179 183 185
339 338 337 335 334 333 333 331 334 337 336 333 331 329 327 324 322 318 314 308 304 281 248 155 145 180 236 261 270 269 270 266 251 248 249 245 243 240 229 218 211 214 214 217 215 202 208 210 216 231 231 240 243 175 219 208 214 226 222 230 228 234 200 173 177 182 182 170 173 193 230 203 182 184 171 161 170 173 175 177 176 177 176 179 180 182 186 186
338 338 337 336 334 334 334 332 335 337 335 333 331 330 327 322 319 315 311 311 294 195 119 117 159 213 257 269 264 264 274 260 230 227 228 219 213 210 195 191 195 194 185 193 199 191 201 208 214 231 218 222 245 227 217 212 208 216 216 217 216 225 176 161 181 190 180 164 181 205 236 208 171 170 170 171 174 178 184 180 179 182 180 183 183 184 187 185
338 337 337 336 335 336 335 334 337 336 333 333 331 331 327 320 316 310 310 313 163 130 117 162 195 224 279 290 214 223 235 205 197 187 175 192 215 204 177 175 184 182 174 172 180 185 193 202 212 229 217 208 222 222 216 217 212 208 219 226 207 201 186 164 182 196 183 164 185 208 229 224 157 163 171 177 180 183 191 186 184 186 182 184 186 186 188 184
338 337 337 336 335 336 336 336 337 335 333 333 332 332 327 316 301 319 1 116 138 137 182 257 219 227 264 270 226 233 206 184 161 156 186 228 262 211 169 168 177 177 175 167 176 183 185 198 208 218 225 214 211 215 219 216 211 202 214 233 219 206 204 172 171 192 188 178 189 206 226 238 125 162 177 181 187 189 195 194 188 189 185 184 188 189 189 187
338 337 336 335 336 337 336 337 337 335 333 331 334 336 325 298 221 224 115 136 143 181 216 254 234 235 239 217 240 220 161 168 164 173 256 258 248 201 176 177 169 165 173 173 182 186 180 194 204 207 214 212 209 210 217 215 212 208 206 221 223 213 214 189 173 185 189 192 198 201 218 223 160 164 181 184 192 198 200 200 194 192 190 185 187 192 190 190
338 338 336 335 337 338 336 337 336 336 332 329 342 341 318 242 228 221 208 192 185 224 250 191 196 254 302 257 225 195 168 189 224 270 264 242 213 190 187 191 171 167 180 180 182 188 184 189 202 211 207 205 208 210 218 220 218 218 213 218 221 211 206 201 189 184 186 195 205 204 214 219 197 176 181 184 190 203 207 204 201 197 193 190 190 193 193 195
338 337 336 336 338 339 336 335 336 336 331 333 349 338 290 249 266 214 204 220 225 250 274 254 218 255 285 278 252 241 241 236 246 261 241 209 189 188 191 190 181 183 193 184 177 184 191 199 204 210 208 205 207 212 221 227 228 227 221 220 226 227 201 189 187 183 188 198 205 209 217 221 217 196 184 186 186 199 208 206 207 203 198 196 194 195 195 198
338 337 337 338 339 339 336 336 336 336 337 349 347 323 297 349 317 325 324 264 249 247 257 257 243 252 262 263 263 259 261 243 231 235 218 197 191 189 185 186 190 193 197 193 177 178 197 211 210 207 211 210 208 212 220 227 231 230 228 223 226 236 203 175 179 182 192 208 205 208 222 225 224 215 192 190 192 197 204 207 208 205 203 201 199 199 196 197
336 337 338 339 340 339 337 337 335 335 353 355 331 302 338 23 2 344 321 285 273 252 247 250 247 252 256 255 256 250 251 244 230 223 203 190 196 193 179 186 200 195 191 195 181 180 203 218 213 205 211 217 213 212 216 223 226 226 232 231 227 229 196 172 184 189 194 212 213 207 224 232 227 229 213 200 204 204 205 208 210 207 204 203 202 201 198 195
336 338 339 339 340 338 337 337 333 332 355 337 308 297 6 52 15 333 279 282 286 255 235 239 238 243 249 253 237 211 223 234 233 218 189 184 200 200 187 190 204 201 188 194 195 192 205 216 211 205 209 216 213 210 212 220 224 227 230 231 231 215 193 190 193 195 198 212 231 215 222 239 232 232 224 211 213 211 207 210 212 211 208 205 204 203 201 197
336 341 340 340 340 339 338 337 335 320 327 315 290 284 107 29 355 333 286 272 282 258 225 229 234 238 246 256 189 189 213 226 227 209 180 185 199 198 202 199 202 207 195 197 205 212 215 208 206 206 204 208 211 207 212 219 221 226 227 229 237 211 198 210 194 189 203 212 229 222 224 245 234 229 226 217 216 212 207 209 210 211 210 209 206 205 205 200
336 341 340 341 341 338 337 337 353 332 322 312 252 178 151 335 341 329 297 261 270 255 199 213 223 221 209 151 162 184 213 220 221 207 178 188 196 191 202 205 206 211 201 199 206 218 216 185 191 205 200 204 215 213 212 219 220 224 223 227 240 224 205 215 196 184 211 216 212 216 232 248 237 233 229 219 218 212 203 205 207 207 207 208 209 207 206 205
336 339 340 341 339 338 340 342 335 326 319 321 126 145 209 319 329 318 280 258 269 241 153 187 197 179 175 167 172 183 202 205 205 199 185 193 199 196 200 197 209 216 204 198 205 222 210 176 180 205 203 204 215 218 212 215 224 227 216 218 233 235 222 217 200 194 223 227 208 210 227 248 243 233 221 216 220 211 202 204 207 205 203 206 209 207 206 206
337 337 338 339 338 339 339 312 321 322 313 102 114 267 305 311 320 313 254 255 265 224 136 176 171 160 172 169 172 180 179 143 157 185 190 194 196 203 215 197 197 218 205 193 204 211 201 189 186 201 206 205 210 216 209 208 221 230 220 213 219 228 228 216 203 208 230 231 212 209 221 248 253 233 211 210 213 209 205 208 208 206 204 205 206 207 206 205
336 334 336 336 335 334 311 283 307 313 313 10 319 299 313 308 300 271 254 267 247 111 132 146 111 156 177 166 186 212 304 145 181 182 181 191 193 199 218 207 200 209 196 195 206 184 188 199 193 191 203 208 210 213 206 205 218 231 236 221 212 218 224 219 214 220 228 228 223 216 218 242 251 225 200 206 209 212 214 214 212 209 207 206 206 206 205 205
334 332 333 333 332 333 306 266 275 278 288 295 293 303 309 295 270 226 252 265 179 142 157 142 137 176 169 164 202 228 259 234 236 151 163 187 199 205 224 214 209 207 195 207 220 183 181 207 202 193 203 210 210 212 207 207 214 221 239 227 212 215 221 223 227 231 231 228 227 219 209 223 251 227 202 208 214 219 222 221 216 211 208 206 205 205 204 203
332 329 331 332 330 331 317 265 262 279 285 278 301 313 299 267 231 221 225 231 218 152 144 159 160 169 176 183 201 210 223 226 176 148 167 183 196 209 229 220 215 213 201 210 226 218 188 201 205 203 208 207 207 212 210 210 212 207 211 217 212 215 222 227 230 237 240 228 226 228 211 208 245 240 210 204 213 226 231 230 220 211 211 209 205 204 201 200
330 327 328 327 319 307 294 270 264 276 259 303 326 307 275 239 219 236 215 201 287 163 156 182 169 165 190 205 202 188 202 213 176 169 176 177 188 197 203 208 211 213 208 207 220 222 201 189 200 207 208 206 204 207 206 208 211 209 211 215 209 204 212 224 221 228 241 229 224 234 224 213 232 247 232 206 212 236 245 240 229 214 210 208 205 205 201 199
329 327 325 322 313 284 255 255 260 239 230 323 318 279 243 217 226 236 204 122 207 177 172 190 176 179 199 215 225 203 204 210 188 186 187 183 188 193 198 200 191 200 210 202 204 213 210 202 198 196 201 205 203 199 197 202 209 212 216 215 208 201 202 214 214 214 230 232 228 232 228 223 229 242 248 228 215 236 247 247 248 234 217 206 200 203 201 197
329 326 324 322 315 272 250 259 258 250 265 298 289 244 221 231 231 216 199 195 164 136 159 178 177 189 203 217 214 201 220 219 191 195 196 192 195 196 203 206 198 203 214 201 196 202 206 209 205 196 192 200 204 201 195 195 202 207 210 210 210 210 209 213 216 216 224 231 228 225 227 233 238 237 241 240 232 238 245 247 251 251 234 213 200 199 198 197
328 327 326 323 310 273 259 260 250 246 254 254 238 210 217 232 231 204 207 212 189 119 148 159 188 207 214 228 220 198 230 218 188 199 199 193 203 202 203 208 205 210 219 207 202 202 204 207 205 203 190 190 202 210 205 193 197 206 209 214 219 219 220 219 216 220 225 226 219 212 214 232 239 229 225 235 239 241 248 248 244 241 232 219 204 198 196 197
330 330 324 314 296 280 264 249 236 220 214 213 211 212 218 225 225 214 216 216 217 212 188 181 224 233 226 228 227 215 228 218 188 205 208 199 207 204 200 207 205 206 217 212 202 205 216 219 200 201 199 190 198 210 209 200 198 203 209 218 222 220 227 232 232 235 235 232 222 209 210 232 241 235 196 215 234 237 242 243 238 230 218 211 207 201 199 198
330 327 318 295 269 267 256 235 197 189 207 217 215 219 223 225 225 223 216 215 225 229 223 218 224 240 240 229 225 206 202 222 204 206 217 211 214 210 203 205 200 202 213 214 201 201 220 227 190 193 203 200 199 203 205 208 203 194 205 218 221 221 229 235 235 242 241 236 228 211 213 228 238 243 232 231 240 240 236 238 241 235 213 205 207 203 203 201
325 323 312 287 264 244 237 213 179 190 219 225 223 230 229 228 234 239 229 213 232 230 230 230 217 225 232 231 231 207 190 206 206 210 221 209 212 213 206 204 199 203 213 217 216 205 221 234 189 189 203 201 199 203 206 215 217 201 204 211 214 222 233 238 232 226 227 233 233 222 222 226 230 236 232 232 239 241 237 239 243 237 214 208 211 205 203 204
314 309 295 271 248 223 210 181 176 194 223 228 235 241 240 237 234 234 232 233 256 234 226 232 212 207 224 231 224 198 187 195 193 205 222 206 201 204 205 206 197 201 211 215 221 203 208 240 200 188 201 197 194 206 209 212 218 223 220 204 205 216 218 225 231 227 226 229 234 233 231 231 232 230 214 212 222 231 235 238 239 231 216 213 213 208 204 203
308 303 284 167 137 112 124 163 183 209 223 225 235 237 239 244 238 235 241 246 253 244 233 238 228 214 224 232 221 186 190 204 191 196 213 200 183 188 203 210 196 199 207 210 222 210 196 237 216 184 196 197 192 206 210 201 208 223 230 212 211 221 216 216 225 230 234 234 234 236 234 229 229 234 228 221 222 234 247 253 253 244 229 218 211 207 202 199
314 300 279 109 119 103 99 178 217 228 225 230 239 239 238 243 240 237 240 243 247 244 240 242 239 233 227 232 240 217 205 219 214 209 211 193 177 182 205 215 200 197 205 208 218 224 198 220 231 187 190 201 197 202 211 205 198 208 219 216 212 213 216 223 224 223 233 240 238 238 239 230 217 226 232 234 237 241 252 259 258 256 247 231 214 206 199 196
311 282 131 101 123 124 349 248 238 229 234 239 242 244 247 251 250 240 235 237 241 243 246 247 244 242 235 231 236 228 220 231 229 228 225 205 206 205 200 223 218 203 203 206 211 219 206 207 227 206 189 205 210 203 210 216 211 203 204 213 216 209 210 223 226 222 225 235 238 240 245 238 216 207 217 232 242 240 241 248 250 254 257 245 213 203 200 196
288 261 303 350 260 263 280 259 242 237 240 242 246 250 253 256 256 250 241 237 237 236 240 245 245 244 243 237 234 231 232 238 234 231 232 219 218 215 144 157 241 220 210 213 211 212 214 210 222 225 207 211 217 211 209 217 221 218 210 211 217 215 214 222 224 220 224 231 237 241 245 240 226 204 196 218 237 236 237 249 257 257 261 253 209 200 198 194
277 279 297 299 264 234 251 255 249 245 238 244 254 255 253 252 250 249 244 237 234 230 226 231 234 235 238 236 233 233 231 237 242 237 238 234 226 230 210 152 244 229 210 217 212 202 207 213 215 228 227 216 220 219 213 212 219 226 220 213 216 217 219 225 226 225 230 230 230 236 239 233 221 194 202 226 232 227 229 244 252 256 263 254 207 193 192 193
295 284 285 281 227 210 237 250 252 254 250 248 251 252 253 253 250 246 242 235 230 227 227 227 226 227 231 231 230 232 229 231 240 236 239 245 231 229 230 222 245 234 203 228 236 190 190 204 206 218 225 214 215 217 208 203 212 227 225 218 219 219 220 225 227 228 233 229 227 233 235 229 212 172 189 224 221 216 224 236 241 248 261 257 216 184 185 191
296 278 262 246 217 212 235 258 270 274 271 266 264 264 260 253 248 245 244 244 239 235 235 231 226 225 226 228 229 231 231 231 237 230 230 237 229 218 216 215 233 230 201 2 340 219 196 204 201 211 216 209 210 211 203 199 205 221 227 224 224 221 219 222 223 227 231 226 228 234 235 230 219 193 189 209 216 223 241 250 247 243 250 247 215 175 174 184
298 289 282 256 218 220 241 255 262 262 268 278 280 274 265 257 251 241 238 244 244 242 246 240 228 223 219 222 225 226 226 227 231 233 229 229 221 203 189 188 217 228 347 341 311 253 222 218 208 217 226 221 218 216 213 212 211 214 219 224 226 223 222 224 225 228 229 221 229 237 236 235 226 208 205 217 225 231 238 247 253 254 257 250 208 180 176 179
281 281 294 310 293 269 257 247 250 264 280 286 286 282 276 272 269 248 233 238 238 236 242 240 230 224 216 216 220 224 225 224 227 233 235 235 233 216 192 196 218 217 256 279 254 223 231 226 210 219 232 235 233 227 222 222 224 223 219 220 223 223 226 228 228 230 230 228 232 225 216 229 232 224 220 218 220 230 233 239 250 259 266 262 218 178 183 182
268 278 306 322 302 279 284 301 316 317 304 293 283 279 278 276 274 266 245 242 241 233 232 233 228 227 227 223 223 227 226 225 228 230 232 234 239 245 239 229 224 209 202 232 230 215 232 229 216 222 231 236 238 236 232 229 228 230 228 224 221 221 225 229 231 233 233 236 240 217 201 220 230 231 230 222 217 230 234 237 243 247 257 261 228 187 196 192
273 275 297 311 291 285 301 311 314 307 294 289 281 269 271 271 268 269 267 260 250 235 230 234 229 226 230 231 232 232 226 226 228 225 225 228 230 238 243 239 229 215 214 226 219 214 234 231 224 234 238 238 239 239 238 237 231 229 232 232 230 225 224 227 231 233 235 239 244 234 219 223 225 227 233 234 233 240 240 239 243 247 255 260 246 223 218 204
283 288 294 301 289 285 289 287 287 289 281 277 272 266 269 270 269 276 279 271 265 250 235 235 237 239 238 233 231 233 231 235 243 232 220 221 222 225 234 242 235 216 214 221 208 200 221 218 214 235 245 240 238 238 239 239 236 233 231 231 234 233 229 228 227 229 233 236 240 240 235 231 224 223 232 237 240 244 242 240 241 243 248 251 248 242 233 217
277 288 287 290 285 278 277 270 266 273 272 264 263 265 264 265 283 312 307 277 269 270 266 268 281 297 283 244 232 235 237 244 258 259 247 242 245 246 245 250 245 220 210 212 202 196 215 220 212 230 244 238 233 233 235 237 239 237 232 227 229 232 233 233 229 226 228 230 231 235 237 235 227 225 228 231 234 238 240 240 240 237 239 243 243 244 242 229
266 274 268 267 276 276 276 275 263 258 262 260 266 273 271 277 308 331 318 283 269 274 302 332 334 325 303 269 252 274 303 302 292 288 285 277 273 272 271 268 264 256 229 211 204 204 222 229 216 222 242 246 239 236 234 235 237 236 232 227 227 228 231 233 233 230 230 231 230 230 233 234 229 225 225 225 228 232 232 232 236 235 234 238 241 244 249 241